QPF
0.02 0.01 0.03 0.04 0.04 0.04 0.03 0.03 0.03 0.03 0.02 0.02 0.02 0.02 0.01 0.02 0.02 0.02 0.02 0.03 0.02 0.02 0.03 0.03 0.02 0.03 0.04 0.04 0.03 0.03 0.03 0.03 0.01 0.02 0.02 0.03 0.06 0.06 0.05 0.08 0.09 0.03 0.02
0.00 0.00 0.03 0.03 0.03 0.03 0.02 0.02 0.02 0.02 0.02 0.02 0.02 0.01 0.02 0.02 0.02 0.02 0.02 0.03 0.03 0.02 0.02 0.03 0.03 0.03 0.03 0.04 0.04 0.03 0.03 0.03 0.02 0.03 0.04 0.03 0.04 0.05 0.07 0.09 0.11 0.04 0.02
0.00 0.00 0.01 0.02 0.02 0.02 0.02 0.02 0.02 0.02 0.02 0.02 0.02 0.02 0.02 0.02 0.02 0.01 0.02 0.03 0.02 0.02 0.02 0.03 0.03 0.03 0.03 0.03 0.03 0.03 0.04 0.05 0.04 0.07 0.08 0.06 0.02 0.04 0.06 0.08 0.07 0.05 0.04
0.00 0.01 0.01 0.01 0.01 0.01 0.02 0.02 0.02 0.02 0.02 0.02 0.02 0.02 0.02 0.02 0.02 0.02 0.02 0.03 0.03 0.03 0.02 0.02 0.02 0.02 0.02 0.02 0.03 0.03 0.04 0.04 0.07 0.13 0.11 0.08 0.03 0.02 0.03 0.04 0.05 0.05 0.04
0.01 0.01 0.00 0.01 0.01 0.01 0.01 0.01 0.01 0.02 0.01 0.01 0.01 0.01 0.02 0.03 0.03 0.03 0.03 0.03 0.04 0.03 0.03 0.03 0.02 0.02 0.02 0.01 0.01 0.02 0.02 0.04 0.09 0.11 0.08 0.09 0.07 0.02 0.02 0.03 0.04 0.04 0.04
0.01 0.01 0.00 0.01 0.01 0.00 0.01 0.01 0.01 0.01 0.01 0.01 0.01 0.02 0.02 0.03 0.03 0.03 0.03 0.03 0.03 0.03 0.02 0.03 0.02 0.02 0.02 0.01 0.01 0.01 0.02 0.04 0.07 0.04 0.05 0.06 0.06 0.02 0.03 0.03 0.04 0.04 0.03
0.00 0.00 0.00 0.01 0.01 0.00 0.01 0.01 0.01 0.01 0.01 0.01 0.01 0.01 0.01 0.02 0.02 0.02 0.02 0.02 0.02 0.03 0.03 0.03 0.02 0.02 0.03 0.02 0.01 0.01 0.01 0.04 0.06 0.03 0.06 0.07 0.04 0.02 0.03 0.02 0.03 0.03 0.03
0.00 0.00 0.00 0.01 0.01 0.01 0.01 0.01 0.01 0.01 0.01 0.01 0.01 0.01 0.01 0.01 0.01 0.01 0.01 0.03 0.02 0.03 0.03 0.02 0.02 0.01 0.02 0.02 0.01 0.00 0.00 0.02 0.04 0.03 0.06 0.06 0.02 0.01 0.02 0.02 0.03 0.02 0.02
0.00 0.00 0.00 0.00 0.00 0.00 0.01 0.01 0.01 0.01 0.01 0.01 0.01 0.01 0.02 0.02 0.01 0.01 0.01 0.02 0.02 0.02 0.02 0.02 0.01 0.01 0.01 0.01 0.01 0.00 0.00 0.01 0.03 0.02 0.03 0.03 0.01 0.01 0.01 0.02 0.02 0.02 0.02
0.00 0.00 0.00 0.02 0.01 0.00 0.00 0.00 0.01 0.01 0.01 0.01 0.01 0.01 0.01 0.01 0.00 0.01 0.01 0.01 0.01 0.01 0.01 0.02 0.02 0.01 0.01 0.00 0.00 0.00 0.00 0.01 0.01 0.01 0.02 0.01 0.01 0.01 0.01 0.02 0.03 0.02 0.02
0.01 0.00 0.00 0.01 0.01 0.01 0.01 0.00 0.00 0.01 0.01 0.01 0.01 0.01 0.05 0.10 0.05 0.04 0.02 0.01 0.01 0.01 0.01 0.02 0.02 0.01 0.01 0.00 0.00 0.00 0.01 0.01 0.01 0.01 0.01 0.01 0.01 0.01 0.01 0.01 0.02 0.01 0.02
0.01 0.01 0.01 0.01 0.01 0.01 0.01 0.01 0.03 0.03 0.04 0.06 0.07 0.06 0.11 0.14 0.12 0.05 0.01 0.01 0.01 0.01 0.01 0.01 0.02 0.02 0.04 0.04 0.01 0.01 0.01 0.01 0.01 0.00 0.00 0.00 0.01 0.01 0.01 0.01 0.01 0.01 0.02
0.01 0.01 0.01 0.01 0.02 0.02 0.03 0.03 0.05 0.06 0.07 0.08 0.06 0.06 0.09 0.10 0.07 0.05 0.03 0.02 0.02 0.02 0.04 0.02 0.02 0.04 0.05 0.05 0.03 0.01 0.01 0.02 0.01 0.02 0.02 0.00 0.01 0.01 0.01 0.01 0.01 0.01 0.01
0.01 0.01 0.01 0.01 0.03 0.04 0.04 0.04 0.04 0.04 0.04 0.06 0.06 0.04 0.05 0.08 0.09 0.08 0.08 0.08 0.07 0.06 0.09 0.06 0.05 0.04 0.03 0.02 0.01 0.01 0.01 0.01 0.01 0.03 0.03 0.01 0.00 0.00 0.01 0.01 0.01 0.01 0.01
0.01 0.01 0.01 0.02 0.03 0.04 0.04 0.05 0.04 0.03 0.04 0.05 0.06 0.04 0.03 0.04 0.06 0.07 0.07 0.09 0.08 0.05 0.05 0.06 0.03 0.04 0.03 0.02 0.02 0.01 0.01 0.01 0.00 0.01 0.03 0.02 0.00 0.01 0.01 0.01 0.01 0.01 0.01
0.00 0.01 0.01 0.01 0.03 0.03 0.03 0.04 0.04 0.02 0.04 0.04 0.03 0.02 0.03 0.04 0.05 0.07 0.06 0.07 0.06 0.05 0.04 0.03 0.02 0.03 0.03 0.03 0.02 0.01 0.01 0.02 0.01 0.01 0.04 0.04 0.01 0.01 0.01 0.01 0.01 0.01 0.01
0.00 0.00 0.00 0.01 0.02 0.02 0.04 0.04 0.03 0.02 0.02 0.04 0.04 0.03 0.02 0.03 0.04 0.05 0.06 0.06 0.05 0.05 0.04 0.03 0.02 0.02 0.03 0.02 0.01 0.01 0.02 0.02 0.01 0.02 0.05 0.05 0.04 0.02 0.01 0.01 0.01 0.01 0.01
0.00 0.00 0.00 0.00 0.02 0.03 0.04 0.04 0.03 0.02 0.02 0.03 0.03 0.04 0.02 0.02 0.03 0.05 0.06 0.06 0.05 0.05 0.05 0.06 0.04 0.04 0.03 0.02 0.02 0.02 0.02 0.02 0.01 0.02 0.03 0.04 0.06 0.04 0.03 0.01 0.01 0.01 0.01
0.00 0.00 0.00 0.01 0.02 0.02 0.04 0.05 0.05 0.06 0.04 0.03 0.03 0.03 0.03 0.02 0.02 0.04 0.05 0.07 0.06 0.07 0.05 0.04 0.07 0.06 0.07 0.05 0.02 0.01 0.01 0.01 0.01 0.01 0.02 0.02 0.06 0.06 0.06 0.03 0.01 0.01 0.01
0.00 0.00 0.01 0.02 0.02 0.02 0.04 0.05 0.05 0.05 0.05 0.05 0.04 0.03 0.04 0.04 0.03 0.04 0.06 0.06 0.05 0.07 0.07 0.07 0.08 0.07 0.06 0.06 0.03 0.04 0.02 0.01 0.01 0.01 0.01 0.02 0.03 0.02 0.04 0.05 0.04 0.02 0.01
0.00 0.01 0.03 0.03 0.02 0.03 0.05 0.05 0.05 0.06 0.07 0.07 0.07 0.04 0.05 0.05 0.05 0.07 0.09 0.13 0.08 0.07 0.07 0.07 0.08 0.08 0.07 0.06 0.06 0.06 0.03 0.01 0.01 0.02 0.01 0.02 0.02 0.03 0.04 0.07 0.07 0.07 0.05
0.01 0.02 0.03 0.03 0.03 0.03 0.04 0.05 0.06 0.08 0.07 0.10 0.10 0.10 0.09 0.08 0.08 0.09 0.11 0.10 0.08 0.08 0.07 0.07 0.08 0.09 0.09 0.11 0.11 0.14 0.09 0.06 0.03 0.01 0.02 0.02 0.02 0.03 0.03 0.05 0.07 0.08 0.05
0.01 0.02 0.03 0.04 0.05 0.06 0.05 0.05 0.05 0.07 0.08 0.12 0.13 0.15 0.14 0.12 0.10 0.10 0.10 0.10 0.11 0.08 0.09 0.09 0.08 0.08 0.09 0.10 0.11 0.11 0.10 0.11 0.09 0.04 0.02 0.02 0.03 0.04 0.04 0.05 0.06 0.06 0.06
0.01 0.01 0.02 0.03 0.06 0.07 0.04 0.04 0.06 0.07 0.09 0.13 0.15 0.18 0.19 0.17 0.15 0.11 0.09 0.12 0.12 0.11 0.12 0.09 0.11 0.11 0.11 0.10 0.12 0.10 0.07 0.12 0.16 0.14 0.09 0.05 0.05 0.06 0.05 0.04 0.05 0.07 0.09
0.00 0.00 0.01 0.02 0.03 0.02 0.02 0.03 0.06 0.08 0.12 0.14 0.15 0.17 0.17 0.20 0.19 0.16 0.14 0.14 0.14 0.11 0.12 0.12 0.16 0.12 0.11 0.10 0.13 0.14 0.15 0.15 0.11 0.13 0.14 0.12 0.10 0.08 0.07 0.06 0.07 0.08 0.09
0.00 0.00 0.01 0.02 0.02 0.03 0.03 0.04 0.06 0.12 0.14 0.12 0.14 0.16 0.17 0.18 0.18 0.18 0.15 0.14 0.14 0.13 0.11 0.10 0.12 0.12 0.12 0.13 0.13 0.14 0.16 0.13 0.11 0.15 0.15 0.14 0.12 0.10 0.09 0.09 0.10 0.07 0.06
MSLP
1011.27 1011.39 1011.65 1012.02 1012.44 1012.86 1013.20 1013.43 1013.53 1013.54 1013.50 1013.47 1013.47 1013.53 1013.65 1013.79 1013.93 1014.02 1014.07 1014.06 1014.03 1014.01 1014.01 1014.07 1014.18 1014.33 1014.49 1014.63 1014.74 1014.81 1014.87 1014.92 1015.00 1015.14 1015.33 1015.58 1015.86 1016.15 1016.44 1016.70 1016.93 1017.15 1017.37
1011.37 1011.63 1012.02 1012.49 1012.97 1013.37 1013.65 1013.78 1013.78 1013.69 1013.58 1013.51 1013.53 1013.65 1013.84 1014.06 1014.26 1014.41 1014.47 1014.47 1014.43 1014.40 1014.40 1014.46 1014.57 1014.72 1014.88 1015.00 1015.08 1015.11 1015.12 1015.14 1015.20 1015.34 1015.56 1015.84 1016.17 1016.51 1016.82 1017.10 1017.33 1017.53 1017.72
1011.44 1011.85 1012.36 1012.93 1013.45 1013.85 1014.09 1014.15 1014.06 1013.89 1013.72 1013.63 1013.65 1013.80 1014.03 1014.30 1014.53 1014.69 1014.77 1014.76 1014.72 1014.69 1014.70 1014.77 1014.90 1015.06 1015.20 1015.31 1015.36 1015.36 1015.34 1015.34 1015.41 1015.56 1015.82 1016.15 1016.52 1016.89 1017.23 1017.51 1017.73 1017.91 1018.07
1011.45 1011.98 1012.60 1013.25 1013.83 1014.26 1014.48 1014.50 1014.37 1014.15 1013.96 1013.85 1013.87 1014.03 1014.27 1014.54 1014.77 1014.93 1015.00 1014.99 1014.95 1014.93 1014.96 1015.05 1015.20 1015.37 1015.51 1015.60 1015.63 1015.60 1015.56 1015.57 1015.65 1015.84 1016.14 1016.51 1016.92 1017.31 1017.65 1017.92 1018.12 1018.28 1018.42
1011.37 1011.99 1012.70 1013.43 1014.07 1014.54 1014.79 1014.82 1014.69 1014.48 1014.28 1014.17 1014.19 1014.34 1014.57 1014.82 1015.03 1015.16 1015.21 1015.20 1015.17 1015.18 1015.24 1015.36 1015.54 1015.71 1015.85 1015.92 1015.92 1015.87 1015.83 1015.84 1015.94 1016.17 1016.51 1016.92 1017.36 1017.76 1018.09 1018.33 1018.50 1018.62 1018.73
1011.21 1011.87 1012.65 1013.45 1014.16 1014.68 1014.99 1015.07 1014.99 1014.82 1014.65 1014.56 1014.59 1014.73 1014.93 1015.15 1015.32 1015.42 1015.45 1015.44 1015.43 1015.47 1015.57 1015.73 1015.92 1016.10 1016.23 1016.27 1016.25 1016.18 1016.12 1016.14 1016.27 1016.54 1016.92 1017.36 1017.81 1018.20 1018.51 1018.71 1018.83 1018.92 1019.01
1010.99 1011.67 1012.48 1013.32 1014.09 1014.68 1015.06 1015.22 1015.21 1015.11 1015.01 1014.96 1015.01 1015.14 1015.32 1015.50 1015.64 1015.71 1015.73 1015.73 1015.75 1015.82 1015.96 1016.15 1016.35 1016.52 1016.63 1016.64 1016.57 1016.48 1016.42 1016.44 1016.60 1016.90 1017.32 1017.78 1018.24 1018.62 1018.88 1019.04 1019.12 1019.16 1019.23
1010.78 1011.44 1012.25 1013.10 1013.90 1014.55 1014.99 1015.24 1015.32 1015.31 1015.28 1015.30 1015.37 1015.51 1015.68 1015.84 1015.95 1016.01 1016.03 1016.04 1016.09 1016.19 1016.36 1016.56 1016.77 1016.92 1016.98 1016.95 1016.85 1016.73 1016.65 1016.69 1016.87 1017.21 1017.65 1018.14 1018.60 1018.96 1019.20 1019.32 1019.35 1019.35 1019.39
1010.63 1011.24 1012.02 1012.86 1013.66 1014.33 1014.83 1015.15 1015.31 1015.38 1015.43 1015.51 1015.63 1015.79 1015.96 1016.11 1016.22 1016.28 1016.30 1016.34 1016.41 1016.54 1016.72 1016.92 1017.10 1017.22 1017.24 1017.16 1017.02 1016.87 1016.79 1016.84 1017.05 1017.42 1017.90 1018.41 1018.87 1019.23 1019.45 1019.53 1019.52 1019.49 1019.51
1010.60 1011.15 1011.86 1012.66 1013.43 1014.10 1014.62 1014.97 1015.19 1015.33 1015.44 1015.57 1015.74 1015.93 1016.12 1016.29 1016.40 1016.47 1016.52 1016.57 1016.66 1016.79 1016.97 1017.15 1017.30 1017.38 1017.35 1017.22 1017.05 1016.89 1016.81 1016.88 1017.12 1017.52 1018.03 1018.57 1019.06 1019.42 1019.63 1019.70 1019.67 1019.62 1019.61
1010.70 1011.18 1011.83 1012.57 1013.29 1013.92 1014.41 1014.77 1015.01 1015.18 1015.33 1015.51 1015.71 1015.94 1016.16 1016.35 1016.49 1016.59 1016.65 1016.71 1016.80 1016.93 1017.08 1017.23 1017.34 1017.37 1017.30 1017.15 1016.96 1016.80 1016.74 1016.83 1017.10 1017.54 1018.09 1018.66 1019.16 1019.54 1019.77 1019.84 1019.81 1019.75 1019.72
1010.91 1011.35 1011.94 1012.61 1013.26 1013.82 1014.27 1014.59 1014.82 1014.99 1015.16 1015.35 1015.59 1015.85 1016.10 1016.33 1016.50 1016.62 1016.70 1016.76 1016.84 1016.95 1017.07 1017.18 1017.24 1017.24 1017.15 1016.99 1016.81 1016.67 1016.64 1016.76 1017.06 1017.53 1018.09 1018.68 1019.21 1019.62 1019.87 1019.97 1019.96 1019.91 1019.88
1011.21 1011.63 1012.18 1012.78 1013.36 1013.85 1014.22 1014.49 1014.67 1014.81 1014.97 1015.17 1015.42 1015.70 1015.99 1016.25 1016.45 1016.59 1016.68 1016.75 1016.81 1016.88 1016.96 1017.03 1017.07 1017.05 1016.96 1016.82 1016.67 1016.57 1016.57 1016.72 1017.04 1017.51 1018.08 1018.68 1019.23 1019.66 1019.94 1020.09 1020.12 1020.09 1020.07
1011.55 1011.97 1012.50 1013.05 1013.56 1013.98 1014.29 1014.48 1014.60 1014.71 1014.83 1015.02 1015.26 1015.56 1015.86 1016.15 1016.37 1016.54 1016.64 1016.70 1016.75 1016.79 1016.83 1016.87 1016.89 1016.87 1016.81 1016.71 1016.61 1016.55 1016.59 1016.76 1017.08 1017.53 1018.08 1018.66 1019.20 1019.64 1019.96 1020.16 1020.25 1020.27 1020.29
1011.88 1012.33 1012.85 1013.38 1013.85 1014.21 1014.45 1014.58 1014.64 1014.69 1014.77 1014.93 1015.16 1015.45 1015.76 1016.06 1016.31 1016.49 1016.60 1016.66 1016.69 1016.71 1016.73 1016.76 1016.78 1016.78 1016.75 1016.71 1016.67 1016.66 1016.73 1016.90 1017.19 1017.59 1018.08 1018.60 1019.11 1019.55 1019.90 1020.15 1020.30 1020.39 1020.46
1012.18 1012.66 1013.20 1013.72 1014.16 1014.49 1014.68 1014.77 1014.78 1014.78 1014.81 1014.93 1015.12 1015.39 1015.69 1015.99 1016.25 1016.44 1016.56 1016.63 1016.65 1016.66 1016.68 1016.71 1016.75 1016.79 1016.82 1016.83 1016.85 1016.88 1016.96 1017.10 1017.34 1017.65 1018.05 1018.48 1018.92 1019.34 1019.70 1019.99 1020.22 1020.38 1020.52
1012.44 1012.96 1013.51 1014.04 1014.47 1014.78 1014.96 1015.01 1014.99 1014.95 1014.94 1015.00 1015.15 1015.37 1015.65 1015.93 1016.18 1016.39 1016.52 1016.60 1016.63 1016.66 1016.69 1016.73 1016.80 1016.88 1016.97 1017.04 1017.10 1017.16 1017.23 1017.33 1017.48 1017.69 1017.96 1018.27 1018.62 1018.99 1019.34 1019.66 1019.95 1020.20 1020.41
1012.69 1013.22 1013.78 1014.31 1014.75 1015.06 1015.24 1015.29 1015.26 1015.19 1015.13 1015.14 1015.22 1015.39 1015.61 1015.86 1016.10 1016.30 1016.45 1016.54 1016.61 1016.65 1016.71 1016.79 1016.90 1017.02 1017.15 1017.27 1017.36 1017.43 1017.48 1017.52 1017.57 1017.65 1017.78 1017.97 1018.21 1018.50 1018.82 1019.16 1019.50 1019.81 1020.10
1012.91 1013.45 1014.00 1014.53 1014.97 1015.30 1015.50 1015.57 1015.54 1015.45 1015.36 1015.31 1015.32 1015.41 1015.57 1015.76 1015.97 1016.16 1016.32 1016.45 1016.54 1016.63 1016.72 1016.84 1016.98 1017.14 1017.31 1017.45 1017.57 1017.63 1017.65 1017.63 1017.58 1017.54 1017.54 1017.59 1017.72 1017.92 1018.19 1018.52 1018.87 1019.24 1019.59
1013.12 1013.63 1014.17 1014.68 1015.13 1015.49 1015.72 1015.82 1015.82 1015.73 1015.61 1015.50 1015.44 1015.44 1015.51 1015.64 1015.80 1015.97 1016.14 1016.29 1016.42 1016.55 1016.69 1016.84 1017.01 1017.20 1017.39 1017.55 1017.67 1017.73 1017.72 1017.64 1017.52 1017.38 1017.27 1017.20 1017.21 1017.31 1017.51 1017.80 1018.15 1018.53 1018.91
1013.28 1013.76 1014.26 1014.75 1015.21 1015.59 1015.87 1016.02 1016.06 1015.99 1015.85 1015.69 1015.55 1015.46 1015.44 1015.49 1015.59 1015.74 1015.91 1016.08 1016.25 1016.42 1016.59 1016.78 1016.97 1017.17 1017.37 1017.54 1017.66 1017.71 1017.69 1017.58 1017.42 1017.21 1017.01 1016.85 1016.76 1016.76 1016.88 1017.09 1017.39 1017.75 1018.12
1013.34 1013.78 1014.24 1014.72 1015.18 1015.60 1015.93 1016.14 1016.23 1016.19 1016.06 1015.86 1015.66 1015.49 1015.37 1015.33 1015.38 1015.49 1015.64 1015.83 1016.03 1016.23 1016.44 1016.64 1016.85 1017.06 1017.25 1017.42 1017.55 1017.60 1017.58 1017.48 1017.30 1017.08 1016.83 1016.60 1016.42 1016.34 1016.35 1016.47 1016.68 1016.97 1017.30
1013.27 1013.67 1014.10 1014.55 1015.02 1015.47 1015.86 1016.14 1016.30 1016.31 1016.20 1015.99 1015.74 1015.50 1015.30 1015.19 1015.16 1015.23 1015.37 1015.56 1015.78 1016.01 1016.23 1016.45 1016.65 1016.86 1017.04 1017.21 1017.34 1017.42 1017.42 1017.35 1017.20 1016.99 1016.73 1016.47 1016.24 1016.06 1015.97 1015.97 1016.06 1016.24 1016.48
1013.04 1013.41 1013.80 1014.24 1014.72 1015.20 1015.64 1016.00 1016.23 1016.31 1016.24 1016.04 1015.77 1015.48 1015.22 1015.04 1014.96 1014.99 1015.11 1015.29 1015.51 1015.74 1015.97 1016.19 1016.38 1016.57 1016.75 1016.91 1017.05 1017.15 1017.20 1017.19 1017.10 1016.93 1016.70 1016.44 1016.17 1015.92 1015.72 1015.59 1015.55 1015.60 1015.72
1012.66 1013.01 1013.38 1013.80 1014.27 1014.78 1015.28 1015.70 1016.01 1016.16 1016.15 1015.98 1015.72 1015.41 1015.12 1014.90 1014.77 1014.76 1014.85 1015.01 1015.22 1015.45 1015.66 1015.86 1016.04 1016.20 1016.36 1016.51 1016.67 1016.80 1016.91 1016.96 1016.94 1016.85 1016.67 1016.43 1016.14 1015.84 1015.54 1015.30 1015.12 1015.02 1015.02
1012.18 1012.52 1012.87 1013.27 1013.74 1014.26 1014.79 1015.27 1015.64 1015.87 1015.92 1015.81 1015.58 1015.28 1014.98 1014.73 1014.57 1014.53 1014.59 1014.72 1014.91 1015.11 1015.30 1015.47 1015.61 1015.74 1015.88 1016.02 1016.18 1016.34 1016.50 1016.62 1016.68 1016.66 1016.55 1016.34 1016.06 1015.72 1015.36 1015.02 1014.72 1014.50 1014.38
Thickness
5797 5793 5788 5787 5785 5784 5782 5781 5779 5778 5776 5774 5773 5772 5772 5771 5770 5768 5768 5767 5766 5766 5765 5764 5763 5762 5761 5760 5759 5758 5757 5756 5755 5754 5752 5751 5750 5749 5748 5746 5746 5743 5741
5801 5793 5788 5787 5785 5783 5781 5779 5778 5776 5775 5773 5772 5771 5770 5769 5768 5767 5766 5765 5765 5764 5763 5762 5761 5760 5759 5758 5757 5757 5756 5755 5754 5753 5751 5750 5748 5747 5747 5746 5745 5742 5740
5801 5793 5788 5786 5784 5782 5780 5778 5776 5775 5773 5772 5771 5769 5768 5767 5766 5766 5765 5764 5763 5763 5762 5761 5760 5759 5758 5757 5756 5755 5755 5754 5754 5753 5752 5749 5747 5746 5745 5744 5742 5740 5738
5803 5795 5789 5785 5783 5781 5779 5777 5775 5773 5772 5771 5770 5768 5767 5766 5765 5764 5764 5763 5762 5761 5760 5759 5758 5757 5757 5756 5755 5755 5754 5753 5753 5753 5752 5749 5747 5744 5743 5742 5740 5738 5737
5803 5794 5787 5784 5782 5780 5778 5776 5774 5772 5771 5769 5768 5767 5766 5765 5764 5763 5762 5761 5760 5759 5758 5758 5757 5756 5755 5755 5755 5754 5754 5753 5753 5753 5751 5748 5745 5743 5741 5740 5739 5737 5736
5801 5794 5786 5784 5781 5779 5776 5775 5773 5771 5770 5768 5767 5766 5765 5763 5762 5761 5760 5759 5759 5758 5757 5756 5755 5755 5754 5754 5754 5754 5754 5754 5754 5753 5751 5747 5744 5741 5740 5739 5737 5736 5735
5802 5793 5786 5783 5780 5778 5776 5774 5772 5770 5769 5767 5766 5765 5763 5762 5761 5760 5759 5758 5757 5756 5755 5755 5754 5753 5753 5753 5753 5753 5753 5754 5755 5753 5750 5746 5743 5741 5739 5738 5737 5735 5734
5804 5794 5786 5782 5779 5777 5775 5773 5771 5769 5768 5766 5765 5763 5762 5761 5760 5759 5758 5757 5756 5755 5754 5753 5753 5752 5752 5752 5753 5753 5754 5754 5755 5753 5749 5745 5742 5740 5738 5737 5736 5735 5733
5806 5795 5788 5783 5779 5776 5774 5772 5770 5768 5767 5765 5764 5762 5761 5760 5759 5758 5757 5756 5755 5754 5753 5753 5752 5751 5751 5752 5753 5753 5754 5755 5755 5753 5749 5744 5741 5740 5738 5736 5735 5734 5733
5807 5800 5792 5787 5782 5778 5775 5772 5770 5768 5766 5765 5763 5762 5761 5760 5759 5758 5757 5755 5754 5754 5753 5752 5752 5751 5751 5752 5752 5753 5754 5755 5756 5753 5749 5744 5742 5740 5738 5736 5735 5733 5732
5805 5802 5798 5792 5786 5783 5778 5774 5770 5768 5766 5765 5763 5762 5761 5761 5760 5758 5757 5755 5754 5753 5753 5752 5752 5751 5751 5752 5753 5754 5755 5756 5757 5753 5749 5744 5742 5740 5738 5736 5734 5733 5731
5801 5801 5800 5796 5790 5787 5783 5776 5773 5771 5767 5766 5766 5764 5763 5763 5762 5760 5757 5756 5754 5754 5753 5753 5752 5751 5752 5753 5754 5755 5756 5758 5758 5753 5748 5745 5743 5740 5738 5736 5734 5733 5731
5802 5802 5800 5796 5792 5789 5785 5780 5777 5774 5771 5769 5768 5766 5765 5764 5763 5761 5759 5756 5755 5754 5754 5754 5753 5754 5755 5756 5757 5757 5759 5760 5758 5753 5747 5746 5743 5741 5739 5737 5735 5733 5731
5802 5802 5801 5797 5792 5789 5786 5784 5780 5777 5774 5772 5769 5768 5766 5765 5764 5763 5761 5759 5758 5757 5757 5757 5757 5757 5758 5758 5758 5759 5760 5759 5757 5752 5748 5746 5744 5742 5739 5737 5735 5733 5731
5802 5801 5800 5797 5792 5788 5785 5783 5782 5779 5777 5774 5771 5769 5767 5766 5765 5763 5762 5761 5760 5760 5759 5758 5759 5760 5759 5759 5759 5760 5760 5759 5758 5754 5750 5747 5745 5743 5740 5738 5736 5734 5732
5803 5801 5800 5796 5791 5788 5784 5781 5780 5779 5776 5775 5772 5770 5768 5767 5765 5764 5762 5761 5761 5761 5761 5760 5761 5760 5760 5760 5760 5760 5760 5759 5757 5755 5751 5748 5746 5744 5742 5740 5738 5736 5734
5805 5803 5800 5796 5792 5788 5784 5781 5781 5780 5778 5776 5773 5770 5768 5767 5765 5764 5763 5762 5762 5762 5761 5761 5761 5760 5760 5760 5760 5760 5759 5759 5758 5757 5753 5750 5748 5746 5744 5742 5740 5738 5736
5809 5804 5801 5799 5793 5789 5785 5783 5782 5781 5779 5777 5774 5771 5769 5767 5765 5764 5763 5762 5762 5762 5761 5760 5760 5759 5759 5760 5760 5761 5761 5760 5759 5758 5756 5754 5752 5750 5747 5745 5743 5741 5739
5811 5806 5801 5799 5794 5790 5786 5783 5782 5781 5779 5777 5774 5772 5769 5766 5765 5763 5763 5762 5761 5761 5760 5760 5759 5758 5757 5758 5759 5761 5762 5761 5761 5761 5760 5758 5757 5755 5752 5749 5747 5744 5742
5814 5808 5802 5799 5795 5792 5788 5784 5782 5780 5778 5776 5774 5772 5769 5766 5764 5763 5762 5762 5762 5761 5759 5759 5758 5758 5757 5758 5759 5761 5762 5764 5763 5763 5762 5762 5760 5758 5756 5754 5750 5747 5745
5814 5808 5803 5799 5795 5791 5787 5783 5778 5776 5777 5776 5775 5773 5770 5767 5764 5762 5761 5761 5760 5760 5759 5759 5757 5756 5756 5758 5755 5754 5759 5765 5765 5765 5764 5764 5764 5762 5761 5758 5754 5751 5748
5815 5810 5805 5800 5797 5792 5788 5785 5782 5780 5778 5777 5776 5774 5771 5768 5766 5764 5761 5760 5760 5759 5759 5758 5757 5754 5755 5757 5752 5747 5745 5751 5760 5767 5766 5765 5765 5764 5762 5760 5757 5755 5753
5817 5812 5809 5803 5799 5794 5791 5786 5783 5780 5777 5775 5774 5772 5771 5769 5767 5764 5763 5762 5761 5760 5758 5758 5757 5754 5751 5755 5756 5749 5741 5740 5750 5760 5764 5765 5765 5763 5763 5762 5759 5757 5755
5821 5816 5811 5805 5800 5796 5791 5785 5780 5776 5772 5773 5772 5772 5771 5769 5767 5766 5765 5763 5761 5760 5759 5759 5759 5757 5753 5750 5754 5756 5754 5751 5743 5744 5754 5760 5762 5761 5761 5761 5761 5758 5755
5826 5819 5813 5807 5801 5796 5792 5787 5782 5777 5775 5774 5773 5770 5769 5769 5767 5766 5764 5763 5762 5760 5760 5759 5759 5757 5756 5753 5752 5752 5752 5751 5750 5742 5740 5748 5753 5757 5758 5758 5758 5757 5755
5828 5822 5815 5806 5800 5796 5791 5787 5782 5777 5775 5772 5769 5767 5766 5767 5766 5766 5765 5763 5762 5760 5759 5759 5758 5757 5756 5755 5754 5753 5750 5747 5746 5744 5740 5741 5743 5749 5754 5755 5754 5753 5752